This demonstration page uses our WeatherBlox Daily Observations layout. Learn more.

Left ArrowRight Arrow

39.01783, -85.05884

Hourly Observations for April 29, 2020

Temp ( °F °C ) Dew Point ( °F °C ) Humidity (%) Winds ( mph kmh ) Pressure ( in mb ) Visibility ( mi km ) Precip ( " mm )
12:52 am 00:52 Cloudy 64 17.8 46 7.8 52 52 S 13 20 29.77 1008 10 16 N/A
1:52 am 01:52 Cloudy 62 16.7 46 7.8 56 56 S 10 17 29.75 1007 10 16 N/A
2:52 am 02:52 Cloudy 64 17.8 45 7.2 50 50 S 12 19 29.71 1006 10 16 N/A
3:52 am 03:52 Cloudy 62 16.7 46 7.8 56 56 S 14 22 29.69 1005 10 16 0.02 0.51
4:52 am 04:52 Mostly Cloudy 63 17.2 46 7.8 54 54 S 14 22 29.66 1004 10 16 N/A
5:52 am 05:52 Cloudy 63 17.2 47 8.3 56 56 S 16 26 29.65 1004 10 16 N/A
6:52 am 06:52 Cloudy 64 17.8 50 10 60 60 S 28 44 29.62 1003 10 16 N/A
7:52 am 07:52 Cloudy 62 16.7 49 9.4 62 62 S 23 37 29.60 1002 10 16 0.00 0.00
8:52 am 08:52 Cloudy 62 16.7 50 10 65 65 S 21 33 29.56 1001 10 16 0.00 0.00
9:52 am 09:52 Cloudy 66 18.9 50 10 56 56 S 30 48 29.52 1000 10 16 N/A
10:35 am 10:35 Cloudy with Light Rain 64 17.8 50 10 60 60 SSW 22 35 29.55 1001 5 8 0.00 0.00
10:52 am 10:52 Cloudy with Light Rain 61 16.1 53 11.7 75 75 SSW 18 30 29.57 1001 3 5 0.02 0.51
10:59 am 10:59 Cloudy with Light Rain 61 16.1 53 11.7 75 75 SSW 14 22 29.58 1002 7 11 0.00 0.00
11:52 am 11:52 Cloudy with Light Rain 61 16.1 55 12.8 81 81 SW 14 22 29.59 1002 7 11 0.03 0.76
12:52 pm 12:52 Cloudy with Heavy Rain 59 15 53 11.7 81 81 W 24 39 29.61 1003 2 3 0.00 0.00
1:01 pm 13:01 Cloudy with Light Rain 56 13.3 50 10 81 81 W 15 24 29.64 1004 3 5 0.05 1.27
1:11 pm 13:11 Cloudy with Light Rain 56 13.3 51 10.6 84 84 W 14 22 29.63 1003 7 11 0.07 1.78
1:52 pm 13:52 Cloudy 60 15.6 54 12.2 80 80 W 12 19 29.60 1003 10 16 0.08 2.03
2:52 pm 14:52 Cloudy 60 15.6 50 10 70 70 SW 10 17 29.61 1003 10 16 N/A
3:52 pm 15:52 Cloudy 59 15 49 9.4 69 69 SSW 7 11 29.62 1003 10 16 N/A
4:52 pm 16:52 Cloudy with Light Rain 58 14.4 50 10 75 75 SSE 10 17 29.62 1003 10 16 0.00 0.00
5:52 pm 17:52 Cloudy 56 13.3 50 10 81 81 SSE 15 24 29.60 1002 10 16 0.00 0.00
6:52 pm 18:52 Cloudy 56 13.3 49 9.4 77 77 S 14 22 29.65 1004 10 16 N/A
7:52 pm 19:52 Mostly Cloudy 55 12.8 49 9.4 80 80 S 14 22 29.65 1004 10 16 N/A
8:52 pm 20:52 Cloudy 54 12.2 48 8.9 80 80 S 12 19 29.65 1004 10 16 N/A
9:52 pm 21:52 Mostly Cloudy 53 11.7 48 8.9 83 83 S 14 22 29.63 1004 10 16 N/A
10:52 pm 22:52 Mostly Cloudy 53 11.7 48 8.9 83 83 S 13 20 29.64 1004 10 16 N/A
11:52 pm 23:52 Cloudy with Light Rain 51 10.6 47 8.3 86 86 SSW 10 17 29.65 1004 7 11 0.08 2.03

Powered by AerisWeather